Weather History for LIRM - March, 2013

Change the Weather History Date:

Sunday, March 24, 2013

  Actual Average (LIRN) Record (LIRN)
Temperature  
Mean Temperature 58 °F -  
Max Temperature 72 °F 64 °F 77 °F (2001)
Min Temperature 44 °F 44 °F 35 °F (1999)
Degree Days  
Heating Degree Days 7    
Growing Degree Days 8 (Base 50)    
Moisture  
Dew Point 45 °F    
Average Humidity 68    
Maximum Humidity 94    
Minimum Humidity 15    
Precipitation  
Precipitation 0.00 in 0.09 in - ()
Sea Level Pressure  
Sea Level Pressure 29.60 in    
Wind  
Wind Speed 6 mph ()    
Max Wind Speed 20 mph    
Max Gust Speed 31 mph    
Visibility 7.2 miles    
Events      
Averages and records for this station are not official NWS values.
T = Trace of Precipitation, MM = Missing Value Source: Averaged Metar Reports

Daily Weather History Graph

Daily Weather History Graph

Search for Another Location

Airport or City:

Trip Planner

Search our weather history database for the weather conditions in past years. The results will help you decide how hot, cold, wet, or windy it might be!

Date:

Astronomy

Mar. 24, 2013 Rise Set
Actual Time 6:00 AM CET 6:20 PM CET
Civil Twilight 5:32 AM CET 6:47 PM CET
Nautical Twilight 5:00 AM CET 7:20 PM CET
Astronomical Twilight 4:27 AM CET 7:53 PM CET
Moon 3:29 PM CET (3/24) 4:02 AM CET (3/24)
Length of Visible Light 13h 14m
Length of Day
12h 19m
Waxing Gibbous, 90% of the Moon is Illuminated
Mar 24
Waxing Gibbous
Mar 27
Full
Apr 3
Last Quarter
Apr 10
New
Apr 18
First Quarter

Hourly Weather History & Observations

Time (CET) Temp. Windchill Dew Point Humidity Pressure Visibility Wind Dir Wind Speed Gust Speed Precip Events Conditions
12:55 AM 44.6 °F 43.1 °F 42.8 °F 93% 29.77 in 6.2 mi NNE 3.5 mph - N/A   Scattered Clouds
1:00 AM 45 °F - 42 °F 86% 29.79 in 6 mi NNE 3.5 mph - -  
1:55 AM 46.4 °F 45.2 °F 42.8 °F 87% 29.77 in 6.2 mi NE 3.5 mph - N/A   Partly Cloudy
2:55 AM 44.6 °F - 41.0 °F 87% 29.74 in 6.2 mi NE 2.3 mph - N/A   Partly Cloudy
4:00 AM 45 °F - 41 °F 82% 29.74 in 6 mi NE 3.5 mph - -   Scattered Clouds
4:55 AM 44.6 °F 41.4 °F 41.0 °F 87% 29.71 in 6.2 mi ENE 5.8 mph - N/A   Partly Cloudy
6:55 AM 44.6 °F 41.4 °F 41.0 °F 87% 29.68 in 6.2 mi NE 5.8 mph - N/A   Partly Cloudy
7:00 AM 45 °F - 40 °F 78% 29.69 in 6 mi NE 5.8 mph - -  
7:55 AM 48.2 °F - 44.6 °F 87% 29.68 in 6.2 mi NNE 6.9 mph - N/A   Partly Cloudy
8:55 AM 57.2 °F - 51.8 °F 82% 29.65 in - NE 9.2 mph - N/A   Clear
10:00 AM 64 °F - 52 °F 56% 29.67 in 12 mi ENE 5.8 mph - -   Clear
10:55 AM 68.0 °F - 50.0 °F 52% 29.65 in - NE 4.6 mph - N/A   Clear
11:55 AM 71.6 °F - 42.8 °F 35% 29.62 in - East 3.5 mph - N/A   Clear
12:31 PM 71.6 °F - 46.4 °F 41% 29.59 in - SSE 11.5 mph 23.0 mph N/A   Clear
12:55 PM 71.6 °F - 33.8 °F 25% 29.59 in - South 17.3 mph - N/A   Clear
1:00 PM 72 °F - 35 °F 15% 29.61 in 12 mi South 17.3 mph - -  
1:55 PM 71.6 °F - 35.6 °F 27% 29.56 in - SSE 19.6 mph 31.1 mph N/A   Clear
2:55 PM 69.8 °F - 39.2 °F 33% 29.53 in - South 17.3 mph - N/A   Clear
3:55 PM 68.0 °F - 42.8 °F 40% 29.53 in 6.2 mi South 16.1 mph 27.6 mph N/A   Scattered Clouds
4:00 PM 68 °F - 43 °F 29%  in 12 mi South 16.1 mph - -   Partly Cloudy
4:55 PM 66.2 °F - 48.2 °F 52% 29.50 in 6.2 mi South 13.8 mph - N/A   Scattered Clouds
5:55 PM 62.6 °F - 50.0 °F 63% 29.50 in 6.2 mi SE 2.3 mph - N/A   Mostly Cloudy
6:55 PM 59.0 °F - 55.4 °F 88% 29.47 in 6.2 mi NW 3.5 mph - N/A   Mostly Cloudy
7:00 PM 58 °F - 55 °F 85% 29.50 in 9 mi NW 3.5 mph - -  
7:55 PM 57.2 °F - 53.6 °F 88% 29.47 in 6.2 mi NNE 4.6 mph - N/A   Mostly Cloudy
8:55 PM 53.6 °F - 51.8 °F 94% 29.47 in 6.2 mi NE 4.6 mph - N/A   Scattered Clouds
9:55 PM 51.8 °F - 50.0 °F 94% 29.47 in 6.2 mi West 2.3 mph - N/A   Scattered Clouds
10:00 PM 52 °F - 50 °F 92% 29.49 in 9 mi West 2.3 mph - -   Partly Cloudy
10:55 PM 51.8 °F - 50.0 °F 94% 29.47 in 6.2 mi West 4.6 mph - N/A   Scattered Clouds
11:55 PM 53.6 °F - 51.8 °F 94% 29.47 in 6.2 mi NNW 3.5 mph - N/A   Scattered Clouds